| time (UTC) | temp C | wind direction | speed KPH | gust KPH | rain 1hr cm | rain 24hr cm | rain mn cm | humidity % | barometer mb |
| 20260506033705 | 21 | 124 | 12.9 | 19.3 | 0.00 | 0.00 | 0.00 | 59 | 1017.7 |
| 20260506032706 | 21 | 120 | 12.9 | 19.3 | 0.00 | 0.00 | 0.00 | 59 | 1017.6 |
| 20260506032205 | 21 | 120 | 11.3 | 16.1 | 0.00 | 0.00 | 0.00 | 59 | 1017.8 |
| 20260506031705 | 22 | 122 | 14.5 | 19.3 | 0.00 | 0.00 | 0.00 | 57 | 1017.9 |
| 20260506031205 | 22 | 119 | 11.3 | 14.5 | 0.00 | 0.00 | 0.00 | 56 | 1018.0 |
| 20260506030705 | 22 | 142 | 9.7 | 16.1 | 0.00 | 0.00 | 0.00 | 58 | 1018.0 |
| 20260506030205 | 22 | 101 | 8.0 | 12.9 | 0.00 | 0.00 | 0.00 | 59 | 1018.0 |
| 20260506025705 | 21 | 145 | 8.0 | 12.9 | 0.00 | 0.00 | 0.00 | 61 | 1018.1 |
| 20260506025205 | 21 | 133 | 9.7 | 16.1 | 0.00 | 0.00 | 0.00 | 61 | 1018.3 |
| 20260506024705 | 20 | 152 | 11.3 | 16.1 | 0.00 | 0.00 | 0.00 | 63 | 1018.3 |
| 20260506024205 | 20 | 122 | 6.4 | 16.1 | 0.00 | 0.00 | 0.00 | 63 | 1018.3 |
| 20260506023205 | 21 | 124 | 14.5 | 19.3 | 0.00 | 0.00 | 0.00 | 61 | 1018.5 |
| 20260506022705 | 21 | 129 | 14.5 | 20.9 | 0.00 | 0.00 | 0.00 | 60 | 1018.7 |
| 20260506022206 | 21 | 129 | 14.5 | 19.3 | 0.00 | 0.00 | 0.00 | 58 | 1018.7 |
| 20260506021705 | 21 | 123 | 14.5 | 19.3 | 0.00 | 0.00 | 0.00 | 56 | 1018.8 |
| 20260506021205 | 22 | 130 | 12.9 | 22.5 | 0.00 | 0.00 | 0.00 | 55 | 1018.8 |
| 20260506020705 | 22 | 136 | 16.1 | 20.9 | 0.00 | 0.00 | 0.00 | 55 | 1019.1 |
| 20260506020205 | 22 | 142 | 14.5 | 20.9 | 0.00 | 0.00 | 0.00 | 55 | 1018.9 |
| 20260506015705 | 22 | 148 | 9.7 | 19.3 | 0.00 | 0.00 | 0.00 | 57 | 1019.0 |
| 20260506015205 | 22 | 131 | 11.3 | 20.9 | 0.00 | 0.00 | 0.00 | 57 | 1019.2 |
| 20260506014705 | 22 | 134 | 12.9 | 19.3 | 0.00 | 0.00 | 0.00 | 57 | 1019.2 |
| 20260506014205 | 22 | 133 | 14.5 | 19.3 | 0.00 | 0.00 | 0.00 | 56 | 1019.3 |
| 20260506013705 | 22 | 124 | 14.5 | 19.3 | 0.00 | 0.00 | 0.00 | 55 | 1019.3 |
| 20260506013205 | 22 | 131 | 16.1 | 19.3 | 0.00 | 0.00 | 0.00 | 54 | 1019.5 |
| 20260506012705 | 22 | 134 | 9.7 | 19.3 | 0.00 | 0.00 | 0.00 | 55 | 1019.5 |
| 20260506012205 | 22 | 135 | 3.2 | 11.3 | 0.00 | 0.00 | 0.00 | 56 | 1019.8 |
| 20260506011705 | 21 | 108 | 4.8 | 8.0 | 0.00 | 0.00 | 0.00 | 56 | 1019.8 |
| 20260506011205 | 21 | 98 | 4.8 | 8.0 | 0.00 | 0.00 | 0.00 | 57 | 1019.9 |
| 20260506010705 | 21 | 78 | 4.8 | 8.0 | 0.00 | 0.00 | 0.00 | 59 | 1019.9 |
| 20260506010205 | 20 | 75 | 3.2 | 8.0 | 0.00 | 0.00 | 0.00 | 60 | 1020.1 |
| 20260506005705 | 19 | 74 | 4.8 | 8.0 | 0.00 | 0.00 | 0.00 | 60 | 1020.0 |
| 20260506005205 | 19 | 52 | 6.4 | 9.7 | 0.00 | 0.00 | 0.00 | 59 | 1020.1 |
| 20260506004705 | 20 | 43 | 4.8 | 8.0 | 0.00 | 0.00 | 0.00 | 57 | 1020.2 |
| 20260506004205 | 20 | 38 | 4.8 | 8.0 | 0.00 | 0.00 | 0.00 | 57 | 1020.2 |
| 20260506003705 | 20 | 16 | 4.8 | 8.0 | 0.00 | 0.00 | 0.00 | 56 | 1020.2 |
| 20260506003204 | 20 | 40 | 4.8 | 9.7 | 0.00 | 0.00 | 0.00 | 55 | 1020.1 |
| 20260506002205 | 20 | 359 | 1.6 | 4.8 | 0.00 | 0.00 | 0.00 | 57 | 1020.2 |
| 20260506001705 | 20 | 299 | 3.2 | 4.8 | 0.00 | 0.00 | 0.00 | 57 | 1020.1 |
| 20260506001204 | 20 | 349 | 4.8 | 8.0 | 0.00 | 0.00 | 0.00 | 57 | 1020.2 |
| 20260506000705 | 20 | 353 | 3.2 | 8.0 | 0.00 | 0.00 | 0.00 | 59 | 1020.4 |
| 20260506000205 | 19 | 322 | 4.8 | 8.0 | 0.00 | 0.00 | 0.00 | 59 | 1020.2 |
| 20260505235705 | 19 | 335 | 4.8 | 9.7 | 0.00 | 0.00 | 0.00 | 60 | 1020.5 |
| 20260505235205 | 18 | 350 | 1.6 | 9.7 | 0.00 | 0.00 | 0.00 | 60 | 1020.5 |
| 20260505234704 | 18 | 325 | 6.4 | 11.3 | 0.00 | 0.00 | 0.00 | 61 | 1020.5 |
| 20260505234205 | 18 | 322 | 6.4 | 11.3 | 0.00 | 0.00 | 0.00 | 61 | 1020.5 |
| 20260505233704 | 18 | 326 | 4.8 | 9.7 | 0.00 | 0.00 | 0.00 | 63 | 1020.5 |
| 20260505232705 | 18 | 333 | 4.8 | 8.0 | 0.00 | 0.00 | 0.00 | 64 | 1020.5 |
| 20260505232205 | 17 | 322 | 4.8 | 8.0 | 0.00 | 0.00 | 0.00 | 66 | 1020.8 |
| 20260505231205 | 16 | 321 | 4.8 | 8.0 | 0.00 | 0.00 | 0.00 | 67 | 1020.6 |
| 20260505230705 | 16 | 298 | 8.0 | 9.7 | 0.00 | 0.00 | 0.00 | 67 | 1020.6 |
| 20260505230205 | 16 | 310 | 8.0 | 9.7 | 0.00 | 0.00 | 0.00 | 68 | 1020.4 |
| 20260505225704 | 15 | 298 | 8.0 | 9.7 | 0.00 | 0.00 | 0.00 | 69 | 1020.5 |
| 20260505225205 | 15 | 279 | 8.0 | 11.3 | 0.00 | 0.00 | 0.00 | 69 | 1020.4 |
| 20260505224705 | 15 | 290 | 9.7 | 11.3 | 0.00 | 0.00 | 0.00 | 69 | 1020.6 |
| 20260505224205 | 15 | 300 | 9.7 | 12.9 | 0.00 | 0.00 | 0.00 | 69 | 1020.5 |
| 20260505223705 | 15 | 308 | 11.3 | 14.5 | 0.00 | 0.00 | 0.00 | 69 | 1020.7 |
| 20260505223205 | 15 | 315 | 11.3 | 14.5 | 0.00 | 0.00 | 0.00 | 70 | 1020.8 |
| 20260505222704 | 15 | 324 | 9.7 | 11.3 | 0.00 | 0.00 | 0.00 | 72 | 1020.6 |
| 20260505222204 | 14 | 322 | 9.7 | 11.3 | 0.00 | 0.00 | 0.00 | 73 | 1020.7 |
| 20260505221705 | 13 | 319 | 9.7 | 11.3 | 0.00 | 0.00 | 0.00 | 73 | 1020.6 |
| 20260505221204 | 13 | 292 | 9.7 | 9.7 | 0.00 | 0.00 | 0.00 | 74 | 1020.5 |
| 20260505220705 | 13 | 292 | 8.0 | 9.7 | 0.00 | 0.00 | 0.00 | 75 | 1020.6 |
| 20260505220205 | 13 | 287 | 9.7 | 11.3 | 0.00 | 0.00 | 0.00 | 75 | 1020.7 |
| 20260505215204 | 12 | 300 | 9.7 | 12.9 | 0.00 | 0.00 | 0.00 | 76 | 1020.4 |
| 20260505214705 | 12 | 305 | 11.3 | 14.5 | 0.00 | 0.00 | 0.00 | 76 | 1020.5 |
| 20260505214204 | 12 | 311 | 12.9 | 14.5 | 0.00 | 0.00 | 0.00 | 76 | 1020.5 |
| 20260505213704 | 12 | 297 | 11.3 | 12.9 | 0.00 | 0.00 | 0.00 | 77 | 1020.5 |
| 20260505213205 | 12 | 294 | 11.3 | 14.5 | 0.00 | 0.00 | 0.00 | 77 | 1020.4 |
| 20260505212704 | 12 | 295 | 11.3 | 14.5 | 0.00 | 0.00 | 0.00 | 78 | 1020.6 |
| 20260505212204 | 11 | 300 | 12.9 | 14.5 | 0.00 | 0.00 | 0.00 | 78 | 1020.5 |
| 20260505211704 | 11 | 303 | 14.5 | 16.1 | 0.00 | 0.00 | 0.00 | 78 | 1020.4 |
| 20260505211204 | 11 | 309 | 14.5 | 19.3 | 0.00 | 0.00 | 0.00 | 77 | 1020.6 |
| 20260505210704 | 11 | 311 | 14.5 | 19.3 | 0.00 | 0.00 | 0.00 | 76 | 1020.3 |
| 20260505210205 | 11 | 309 | 16.1 | 19.3 | 0.00 | 0.00 | 0.00 | 75 | 1020.3 |
| 20260505205704 | 12 | 312 | 16.1 | 19.3 | 0.00 | 0.00 | 0.00 | 75 | 1020.3 |
| 20260505204705 | 12 | 313 | 14.5 | 16.1 | 0.00 | 0.00 | 0.00 | 75 | 1020.3 |
| 20260505204205 | 12 | 307 | 14.5 | 16.1 | 0.00 | 0.00 | 0.00 | 75 | 1020.3 |
| 20260505203704 | 12 | 308 | 14.5 | 16.1 | 0.00 | 0.00 | 0.00 | 75 | 1020.2 |
| 20260505203204 | 12 | 308 | 14.5 | 16.1 | 0.00 | 0.00 | 0.00 | 75 | 1020.2 |
| 20260505202705 | 12 | 306 | 12.9 | 16.1 | 0.00 | 0.00 | 0.00 | 76 | 1020.1 |
| 20260505202205 | 12 | 315 | 12.9 | 14.5 | 0.00 | 0.00 | 0.00 | 75 | 1020.1 |
| 20260505201704 | 12 | 314 | 12.9 | 14.5 | 0.00 | 0.00 | 0.00 | 75 | 1020.2 |
| 20260505201205 | 12 | 303 | 12.9 | 14.5 | 0.00 | 0.00 | 0.00 | 75 | 1020.1 |
| 20260505200205 | 12 | 326 | 11.3 | 14.5 | 0.00 | 0.00 | 0.00 | 74 | 1020.0 |
| 20260505195205 | 12 | 286 | 11.3 | 12.9 | 0.00 | 0.00 | 0.00 | 75 | 1020.1 |
| 20260505194704 | 12 | 293 | 12.9 | 14.5 | 0.00 | 0.00 | 0.00 | 75 | 1019.9 |
| 20260505194204 | 12 | 299 | 14.5 | 16.1 | 0.00 | 0.00 | 0.00 | 75 | 1019.7 |
| 20260505192705 | 12 | 284 | 12.9 | 14.5 | 0.00 | 0.00 | 0.00 | 74 | 1019.8 |
| 20260505192205 | 12 | 283 | 12.9 | 12.9 | 0.00 | 0.00 | 0.00 | 74 | 1019.8 |
| 20260505191704 | 12 | 286 | 11.3 | 14.5 | 0.00 | 0.00 | 0.00 | 74 | 1020.1 |
| 20260505191205 | 12 | 291 | 12.9 | 16.1 | 0.00 | 0.00 | 0.00 | 73 | 1019.9 |
| 20260505190705 | 12 | 303 | 14.5 | 19.3 | 0.00 | 0.00 | 0.00 | 73 | 1019.9 |
| 20260505190204 | 12 | 317 | 17.7 | 20.9 | 0.00 | 0.00 | 0.00 | 72 | 1020.0 |
| 20260505185704 | 12 | 316 | 16.1 | 19.3 | 0.00 | 0.00 | 0.00 | 71 | 1020.1 |
| 20260505185204 | 12 | 321 | 16.1 | 19.3 | 0.00 | 0.00 | 0.00 | 71 | 1020.1 |
| 20260505184705 | 12 | 315 | 14.5 | 16.1 | 0.00 | 0.00 | 0.00 | 70 | 1020.0 |
| 20260505184204 | 13 | 313 | 14.5 | 16.1 | 0.00 | 0.00 | 0.00 | 70 | 1020.0 |
| 20260505183704 | 12 | 318 | 14.5 | 16.1 | 0.00 | 0.00 | 0.00 | 69 | 1019.9 |
| 20260505183204 | 13 | 317 | 14.5 | 16.1 | 0.00 | 0.00 | 0.00 | 69 | 1020.1 |
| 20260505182705 | 13 | 321 | 14.5 | 16.1 | 0.00 | 0.00 | 0.00 | 68 | 1020.0 |
| 20260505181704 | 14 | 311 | 9.7 | 9.7 | 0.00 | 0.00 | 0.00 | 66 | 1019.9 |
| 20260505181204 | 14 | 306 | 6.4 | 8.0 | 0.00 | 0.00 | 0.00 | 66 | 1020.0 |
| 20260505180704 | 15 | 241 | 8.0 | 9.7 | 0.00 | 0.00 | 0.00 | 66 | 1019.8 |
| 20260505180204 | 14 | 223 | 8.0 | 9.7 | 0.00 | 0.00 | 0.00 | 67 | 1019.8 |
| 20260505175704 | 14 | 227 | 9.7 | 9.7 | 0.00 | 0.00 | 0.00 | 68 | 1019.9 |
| 20260505175204 | 14 | 286 | 8.0 | 8.0 | 0.00 | 0.00 | 0.00 | 68 | 1019.9 |
| 20260505174704 | 14 | 286 | 4.8 | 8.0 | 0.00 | 0.00 | 0.00 | 67 | 1019.7 |
| 20260505174204 | 14 | 286 | 8.0 | 8.0 | 0.00 | 0.00 | 0.00 | 67 | 1020.0 |
| 20260505173205 | 14 | 286 | 4.8 | 8.0 | 0.00 | 0.00 | 0.00 | 66 | 1019.9 |
| 20260505172704 | 14 | 286 | 4.8 | 8.0 | 0.00 | 0.00 | 0.00 | 67 | 1019.9 |
| 20260505172204 | 14 | 292 | 8.0 | 9.7 | 0.00 | 0.00 | 0.00 | 66 | 1019.9 |
| 20260505171704 | 14 | 292 | 8.0 | 8.0 | 0.00 | 0.00 | 0.00 | 66 | 1020.0 |
| 20260505171205 | 14 | 269 | 8.0 | 9.7 | 0.00 | 0.00 | 0.00 | 66 | 1019.9 |
| 20260505170206 | 14 | 277 | 9.7 | 9.7 | 0.00 | 0.00 | 0.00 | 65 | 1020.0 |
| 20260505165719 | 14 | 282 | 9.7 | 11.3 | 0.00 | 0.00 | 0.00 | 65 | 1020.0 |
| 20260505165219 | 14 | 289 | 9.7 | 11.3 | 0.00 | 0.00 | 0.00 | 65 | 1019.9 |
| 20260505164719 | 14 | 285 | 8.0 | 9.7 | 0.00 | 0.00 | 0.00 | 65 | 1020.2 |
| 20260505164219 | 14 | 297 | 8.0 | 8.0 | 0.00 | 0.00 | 0.00 | 65 | 1020.2 |
| 20260505163719 | 14 | 297 | 4.8 | 4.8 | 0.00 | 0.00 | 0.00 | 65 | 1020.1 |
| 20260505163219 | 14 | 297 | 6.4 | 8.0 | 0.00 | 0.00 | 0.00 | 64 | 1020.5 |
| 20260505162719 | 14 | 297 | 6.4 | 8.0 | 0.00 | 0.00 | 0.00 | 64 | 1020.1 |
| 20260505162219 | 15 | 297 | 6.4 | 9.7 | 0.00 | 0.00 | 0.00 | 63 | 1020.1 |
| 20260505161719 | 15 | 292 | 6.4 | 8.0 | 0.00 | 0.00 | 0.00 | 62 | 1020.2 |
| 20260505161218 | 15 | 271 | 4.8 | 4.8 | 0.00 | 0.00 | 0.00 | 61 | 1020.2 |
| 20260505160719 | 15 | 271 | 4.8 | 8.0 | 0.00 | 0.00 | 0.00 | 61 | 1020.2 |
| 20260505160219 | 15 | 261 | 8.0 | 9.7 | 0.00 | 0.00 | 0.00 | 61 | 1020.4 |
| 20260505153219 | 16 | 237 | 14.5 | 19.3 | 0.00 | 0.00 | 0.00 | 58 | 1020.5 |
| 20260505152719 | 16 | 236 | 12.9 | 19.3 | 0.00 | 0.00 | 0.00 | 58 | 1020.6 |
| 20260505152219 | 16 | 239 | 14.5 | 19.3 | 0.00 | 0.00 | 0.00 | 58 | 1020.7 |
| 20260505151719 | 16 | 236 | 14.5 | 19.3 | 0.00 | 0.00 | 0.00 | 57 | 1020.5 |
| 20260505151219 | 16 | 234 | 14.5 | 19.3 | 0.00 | 0.00 | 0.00 | 57 | 1020.6 |
| 20260505150219 | 16 | 235 | 16.1 | 19.3 | 0.00 | 0.00 | 0.00 | 58 | 1020.7 |
| 20260505130219 | 16 | 237 | 17.7 | 22.5 | 0.00 | 0.00 | 0.00 | 60 | 1020.8 |
| 20260505124219 | 16 | 240 | 16.1 | 22.5 | 0.00 | 0.00 | 0.00 | 60 | 1021.0 |
| 20260505123719 | 16 | 241 | 17.7 | 22.5 | 0.00 | 0.00 | 0.00 | 61 | 1021.0 |
| 20260505123218 | 16 | 248 | 14.5 | 19.3 | 0.00 | 0.00 | 0.00 | 61 | 1021.0 |
| 20260505122718 | 16 | 241 | 16.1 | 19.3 | 0.00 | 0.00 | 0.00 | 62 | 1021.0 |
| 20260505121719 | 16 | 239 | 16.1 | 20.9 | 0.00 | 0.00 | 0.00 | 63 | 1021.1 |
| 20260505121219 | 16 | 233 | 14.5 | 19.3 | 0.00 | 0.00 | 0.00 | 64 | 1021.0 |
| 20260505120719 | 16 | 235 | 16.1 | 19.3 | 0.00 | 0.00 | 0.00 | 64 | 1020.9 |
| 20260505120219 | 16 | 231 | 17.7 | 22.5 | 0.00 | 0.00 | 0.00 | 64 | 1021.2 |
| 20260505115719 | 16 | 235 | 19.3 | 25.7 | 0.00 | 0.00 | 0.00 | 63 | 1021.0 |
| 20260505115219 | 16 | 239 | 19.3 | 22.5 | 0.00 | 0.00 | 0.00 | 63 | 1021.1 |
| 20260505114718 | 16 | 237 | 20.9 | 24.1 | 0.00 | 0.00 | 0.00 | 64 | 1021.1 |
| 20260505114218 | 16 | 235 | 19.3 | 22.5 | 0.00 | 0.00 | 0.00 | 66 | 1021.2 |
| 20260505113718 | 16 | 237 | 16.1 | 19.3 | 0.00 | 0.00 | 0.00 | 67 | 1021.1 |
| 20260505113218 | 16 | 243 | 14.5 | 19.3 | 0.00 | 0.00 | 0.00 | 68 | 1021.3 |
| 20260505112718 | 16 | 244 | 12.9 | 16.1 | 0.00 | 0.00 | 0.00 | 68 | 1021.2 |
| 20260505112218 | 16 | 241 | 11.3 | 14.5 | 0.00 | 0.00 | 0.00 | 68 | 1021.0 |
| 20260505111718 | 16 | 252 | 12.9 | 16.1 | 0.00 | 0.00 | 0.00 | 67 | 1021.3 |
| 20260505111218 | 17 | 244 | 14.5 | 16.1 | 0.00 | 0.00 | 0.00 | 66 | 1021.2 |
| 20260505110719 | 17 | 241 | 16.1 | 19.3 | 0.00 | 0.00 | 0.00 | 64 | 1021.1 |
| 20260505110219 | 17 | 238 | 14.5 | 19.3 | 0.00 | 0.00 | 0.00 | 62 | 1021.2 |
| 20260505102218 | 18 | 204 | 4.8 | 9.7 | 0.00 | 0.00 | 0.00 | 59 | 1020.4 |
| 20260505101218 | 18 | 220 | 4.8 | 9.7 | 0.00 | 0.00 | 0.00 | 59 | 1020.5 |
| 20260505100718 | 18 | 230 | 6.4 | 11.3 | 0.00 | 0.00 | 0.00 | 60 | 1020.6 |
| 20260505100219 | 18 | 184 | 4.8 | 9.7 | 0.00 | 0.00 | 0.00 | 60 | 1020.3 |
| 20260505095719 | 18 | 177 | 8.0 | 9.7 | 0.00 | 0.00 | 0.00 | 59 | 1020.4 |
| 20260505095219 | 18 | 179 | 8.0 | 12.9 | 0.00 | 0.00 | 0.00 | 58 | 1020.2 |
| 20260505094719 | 18 | 189 | 8.0 | 11.3 | 0.00 | 0.00 | 0.00 | 59 | 1020.5 |
| 20260505094218 | 18 | 189 | 8.0 | 9.7 | 0.00 | 0.00 | 0.00 | 58 | 1020.1 |
| 20260505093218 | 18 | 169 | 6.4 | 8.0 | 0.00 | 0.00 | 0.00 | 60 | 1019.9 |
| 20260505092719 | 18 | 185 | 8.0 | 9.7 | 0.00 | 0.00 | 0.00 | 58 | 1020.1 |
| 20260505092218 | 18 | 171 | 8.0 | 9.7 | 0.00 | 0.00 | 0.00 | 59 | 1019.8 |
| 20260505091718 | 18 | 191 | 4.8 | 8.0 | 0.00 | 0.00 | 0.00 | 60 | 1019.8 |
| 20260505091218 | 18 | 183 | 4.8 | 9.7 | 0.00 | 0.00 | 0.00 | 57 | 1019.8 |
| 20260505090718 | 18 | 176 | 6.4 | 8.0 | 0.00 | 0.00 | 0.00 | 57 | 1019.9 |
| 20260505085718 | 18 | 190 | 3.2 | 8.0 | 0.00 | 0.00 | 0.00 | 58 | 1019.8 |
| 20260505085219 | 18 | 193 | 1.6 | 4.8 | 0.00 | 0.00 | 0.00 | 57 | 1019.6 |
| 20260505084218 | 18 | 225 | 4.8 | 8.0 | 0.00 | 0.00 | 0.00 | 56 | 1019.6 |
| 20260505083718 | 19 | 202 | 4.8 | 8.0 | 0.00 | 0.00 | 0.00 | 56 | 1019.6 |
| 20260505083219 | 19 | 197 | 3.2 | 8.0 | 0.00 | 0.00 | 0.00 | 56 | 1019.6 |
| 20260505082718 | 19 | 191 | 4.8 | 8.0 | 0.00 | 0.00 | 0.00 | 55 | 1019.5 |
| 20260505082218 | 19 | 179 | 4.8 | 4.8 | 0.00 | 0.00 | 0.00 | 55 | 1019.3 |
| 20260505081718 | 19 | 185 | 4.8 | 8.0 | 0.00 | 0.00 | 0.00 | 55 | 1019.0 |
| 20260505081218 | 19 | 183 | 3.2 | 4.8 | 0.00 | 0.00 | 0.00 | 55 | 1019.0 |
| 20260505080719 | 19 | 174 | 4.8 | 8.0 | 0.00 | 0.00 | 0.00 | 54 | 1019.0 |
| 20260505080218 | 19 | 168 | 4.8 | 9.7 | 0.00 | 0.00 | 0.00 | 55 | 1018.9 |
| 20260505075719 | 19 | 180 | 9.7 | 12.9 | 0.00 | 0.00 | 0.00 | 54 | 1018.8 |
| 20260505075219 | 19 | 175 | 9.7 | 11.3 | 0.00 | 0.00 | 0.00 | 54 | 1018.6 |
| 20260505074218 | 19 | 164 | 9.7 | 11.3 | 0.00 | 0.00 | 0.00 | 53 | 1018.5 |
| 20260505073718 | 19 | 164 | 9.7 | 11.3 | 0.00 | 0.00 | 0.00 | 52 | 1018.6 |
| 20260505073218 | 19 | 167 | 9.7 | 12.9 | 0.00 | 0.00 | 0.00 | 51 | 1018.5 |
| 20260505072218 | 20 | 167 | 9.7 | 12.9 | 0.00 | 0.00 | 0.00 | 51 | 1018.6 |
| 20260505071218 | 20 | 167 | 9.7 | 14.5 | 0.00 | 0.00 | 0.00 | 49 | 1018.2 |
| 20260505070718 | 20 | 170 | 9.7 | 14.5 | 0.00 | 0.00 | 0.00 | 48 | 1018.1 |
| 20260505070218 | 20 | 171 | 12.9 | 16.1 | 0.00 | 0.00 | 0.00 | 48 | 1018.0 |
| 20260505065718 | 20 | 161 | 11.3 | 19.3 | 0.00 | 0.00 | 0.00 | 47 | 1018.0 |
| 20260505065218 | 20 | 167 | 11.3 | 19.3 | 0.00 | 0.00 | 0.00 | 46 | 1017.7 |
| 20260505064718 | 21 | 175 | 11.3 | 19.3 | 0.00 | 0.00 | 0.00 | 46 | 1017.8 |
| 20260505064218 | 21 | 161 | 11.3 | 16.1 | 0.00 | 0.00 | 0.00 | 45 | 1017.7 |
| 20260505063718 | 21 | 170 | 11.3 | 14.5 | 0.00 | 0.00 | 0.00 | 45 | 1017.7 |
| 20260505063218 | 21 | 162 | 11.3 | 14.5 | 0.00 | 0.00 | 0.00 | 45 | 1017.5 |
| 20260505062717 | 21 | 156 | 9.7 | 19.3 | 0.00 | 0.00 | 0.00 | 44 | 1017.5 |
| 20260505062218 | 21 | 168 | 11.3 | 14.5 | 0.00 | 0.00 | 0.00 | 44 | 1017.6 |
| 20260505061718 | 21 | 165 | 9.7 | 16.1 | 0.00 | 0.00 | 0.00 | 46 | 1017.5 |
| 20260505061218 | 21 | 144 | 9.7 | 19.3 | 0.00 | 0.00 | 0.00 | 47 | 1017.6 |
| 20260505060718 | 21 | 139 | 12.9 | 19.3 | 0.00 | 0.00 | 0.00 | 46 | 1017.5 |
| 20260505060218 | 21 | 157 | 12.9 | 19.3 | 0.00 | 0.00 | 0.00 | 46 | 1017.5 |
| 20260505055718 | 21 | 154 | 11.3 | 19.3 | 0.00 | 0.00 | 0.00 | 47 | 1017.4 |
| 20260505055218 | 21 | 130 | 9.7 | 16.1 | 0.00 | 0.00 | 0.00 | 45 | 1017.4 |
| 20260505054718 | 21 | 129 | 12.9 | 16.1 | 0.00 | 0.00 | 0.00 | 46 | 1017.4 |
| 20260505054217 | 21 | 127 | 9.7 | 12.9 | 0.00 | 0.00 | 0.00 | 49 | 1017.3 |
| 20260505053718 | 21 | 124 | 9.7 | 12.9 | 0.00 | 0.00 | 0.00 | 48 | 1017.5 |
| 20260505052718 | 20 | 123 | 8.0 | 12.9 | 0.00 | 0.00 | 0.00 | 48 | 1017.5 |
| 20260505051718 | 20 | 117 | 9.7 | 14.5 | 0.00 | 0.00 | 0.00 | 47 | 1017.2 |
| 20260505051218 | 20 | 119 | 12.9 | 16.1 | 0.00 | 0.00 | 0.00 | 46 | 1017.4 |
| 20260505050718 | 20 | 118 | 12.9 | 14.5 | 0.00 | 0.00 | 0.00 | 46 | 1017.2 |
| 20260505041717 | 21 | 124 | 12.9 | 16.1 | 0.00 | 0.00 | 0.00 | 45 | 1016.7 |
| 20260505041218 | 21 | 122 | 14.5 | 19.3 | 0.00 | 0.00 | 0.00 | 44 | 1016.6 |
| 20260505040718 | 21 | 118 | 12.9 | 16.1 | 0.00 | 0.00 | 0.00 | 44 | 1016.7 |
| 20260505040217 | 21 | 125 | 11.3 | 14.5 | 0.00 | 0.00 | 0.00 | 45 | 1016.6 |
| 20260505035718 | 21 | 120 | 9.7 | 12.9 | 0.00 | 0.00 | 0.00 | 47 | 1016.5 |
| 20260505034718 | 21 | 100 | 6.4 | 12.9 | 0.00 | 0.00 | 0.00 | 47 | 1016.6 |